FW1247 Weather Reports


time (UTC)temp
C
wind
direction
speed
KPH
gust
KPH
rain 1hr
cm
rain 24hr
cm
rain mn
cm
humidity
%
barometer
mb
20260507171604 12 140 0.0 6.4 0.00 0.00 0.00 51 1014.6
20260507164600 12 131 6.4 12.9 0.00 0.00 0.00 52 1014.4
20260507163053 13 101 9.7 17.7 0.00 0.00 0.00 50 1014.3
20260507161554 13 131 9.7 14.5 0.00 0.00 0.00 50 1014.2
20260507160054 13 360 9.7 14.5 0.00 0.00 0.00 49 1014.2
20260507154554 13 89 11.3 19.3 0.00 0.00 0.00 50 1014.1
20260507153048 13 99 8.0 19.3 0.00 0.00 0.00 51 1014.0
20260507151548 13 92 11.3 17.7 0.00 0.00 0.00 50 1014.0
20260507150047 13 153 9.7 17.7 0.00 0.00 0.00 51 1013.9
20260507144545 13 115 8.0 20.9 0.00 0.00 0.00 48 1013.7
20260507143044 13 101 12.9 20.9 0.00 0.00 0.00 46 1013.5
20260507141542 13 112 11.3 20.9 0.00 0.00 0.00 46 1013.6
20260507140036 13 93 11.3 22.5 0.00 0.00 0.00 47 1013.6
20260507134534 13 94 9.7 17.7 0.00 0.00 0.00 48 1013.7
20260507133027 13 69 11.3 20.9 0.00 0.00 0.00 47 1013.8
20260507131530 14 95 8.0 19.3 0.00 0.00 0.00 50 1013.7
20260507130021 13 94 8.0 20.9 0.00 0.00 0.00 48 1013.7
20260507124528 14 85 9.7 19.3 0.00 0.00 0.00 48 1013.7
20260507123019 13 103 17.7 27.4 0.00 0.00 0.00 49 1013.7
20260507121517 13 109 12.9 24.1 0.00 0.00 0.00 52 1013.6
20260507120018 13 101 19.3 29.0 0.00 0.00 0.00 52 1013.4
20260507114514 13 146 11.3 20.9 0.00 0.00 0.00 55 1013.3
20260507113015 13 79 11.3 22.5 0.00 0.00 0.00 60 1013.3
20260507111510 13 97 14.5 20.9 0.00 0.00 0.00 61 1013.2
20260507110010 13 95 12.9 25.7 0.00 0.00 0.00 63 1013.3
20260507104508 15 97 11.3 22.5 0.00 0.00 0.00 62 1013.2
20260507103008 13 75 11.3 24.1 0.00 0.00 0.00 67 1013.1
20260507101509 13 76 8.0 19.3 0.00 0.00 0.00 66 1013.1
20260507100001 13 146 3.2 17.7 0.00 0.00 0.00 65 1013.0
20260507094605 16 27 4.8 16.1 0.00 0.00 0.00 50 1013.0
20260507093056 17 80 11.3 19.3 0.00 0.00 0.00 49 1012.8
20260507091553 16 43 8.0 17.7 0.00 0.00 0.00 54 1012.8
20260507090050 16 36 6.4 17.7 0.00 0.00 0.00 56 1012.6
20260507084556 15 67 6.4 16.1 0.00 0.00 0.00 58 1012.5
20260507083044 16 44 4.8 16.1 0.00 0.00 0.00 55 1012.4
20260507081543 15 339 4.8 14.5 0.00 0.00 0.00 62 1012.4
20260507080037 13 319 1.6 9.7 0.00 0.00 0.00 66 1012.3
20260507074533 14 26 4.8 12.9 0.00 0.00 0.00 61 1012.2
20260507073029 13 19 3.2 16.1 0.00 0.00 0.00 64 1012.1
20260507071524 13 58 4.8 14.5 0.00 0.00 0.00 66 1012.2
20260507070028 13 5 4.8 16.1 0.00 0.00 0.00 66 1012.1
20260507064515 12 35 4.8 14.5 0.00 0.00 0.00 71 1012.0
20260507063010 11 30 4.8 14.5 0.00 0.00 0.00 73 1012.0
20260507061507 11 48 8.0 16.1 0.00 0.00 0.00 74 1011.9
20260507060004 10 35 4.8 14.5 0.00 0.00 0.00 76 1011.9
20260507054558 10 30 4.8 14.5 0.00 0.00 0.00 78 1011.8
20260507053053 9 73 4.8 11.3 0.00 0.00 0.00 80 1011.7
20260507051549 8 12 1.6 4.8 0.00 0.00 0.00 86 1011.5
20260507050046 6 35 0.0 4.8 0.00 0.00 0.00 89 1011.4
20260507044544 5 15 1.6 3.2 0.00 0.00 0.00 89 1011.3
20260507043040 5 12 0.0 3.2 0.00 0.00 0.00 89 1011.2
20260507041537 4 12 0.0 3.2 0.00 0.00 0.00 89 1011.1
20260507040036 3 12 1.6 3.2 0.00 0.00 0.00 89 1011.0
20260507034531 3 12 1.6 4.8 0.00 0.00 0.00 88 1010.9
20260507033031 4 21 0.0 1.6 0.00 0.00 0.00 88 1010.6
20260507031528 4 21 1.6 3.2 0.00 0.00 0.00 87 1010.4
20260507030025 4 21 1.6 4.8 0.00 0.00 0.00 87 1010.4
20260507024522 4 22 1.6 4.8 0.00 0.00 0.00 87 1010.4
20260507023020 5 22 0.0 3.2 0.00 0.00 0.00 86 1010.2
20260507021523 5 22 1.6 4.8 0.00 0.00 0.00 86 1010.1
20260507020018 5 22 1.6 6.4 0.00 0.00 0.00 85 1010.2
20260507014526 5 30 3.2 8.0 0.00 0.00 0.00 85 1010.1
20260507013028 6 351 1.6 4.8 0.00 0.00 0.00 84 1010.2
20260507011513 6 351 1.6 4.8 0.00 0.00 0.00 83 1010.1
20260507010010 6 72 3.2 6.4 0.00 0.00 0.00 83 1010.0
20260507004505 6 91 4.8 12.9 0.00 0.00 0.00 83 1009.8
20260507003004 6 55 3.2 8.0 0.00 0.00 0.00 82 1009.7
20260507001504 7 72 4.8 16.1 0.00 0.00 0.00 82 1009.5
20260506234559 7 83 4.8 12.9 0.00 0.00 0.00 82 1009.5
20260506233111 7 67 8.0 16.1 0.00 0.00 0.00 83 1009.6
20260506231601 7 82 4.8 14.5 0.00 0.00 0.00 83 1009.5
20260506230055 7 66 6.4 12.9 0.00 0.00 0.00 84 1009.6
20260506224553 7 32 3.2 9.7 0.00 0.00 0.00 83 1009.6
20260506223053 7 55 4.8 16.1 0.00 0.00 0.00 83 1009.4
20260506221549 7 63 3.2 9.7 0.00 0.00 0.00 83 1009.4
20260506220046 7 49 4.8 11.3 0.00 0.00 0.00 83 1009.4
20260506214544 7 61 6.4 19.3 0.00 0.00 0.00 83 1009.2
20260506213057 7 71 6.4 14.5 0.00 0.00 0.00 83 1009.2
20260506211540 7 61 6.4 17.7 0.00 0.00 0.00 83 1009.1
20260506210041 7 62 6.4 16.1 0.00 0.00 0.00 82 1009.2
20260506204539 7 74 11.3 19.3 0.00 0.00 0.00 82 1009.0
20260506203037 7 82 8.0 22.5 0.00 0.00 0.00 82 1009.0
20260506201536 7 79 6.4 20.9 0.00 0.00 0.00 82 1009.0
20260506200034 7 74 11.3 24.1 0.00 0.00 0.00 82 1008.8
20260506194532 7 94 16.1 22.5 0.00 0.00 0.00 82 1008.8
20260506193031 7 77 12.9 22.5 0.00 0.00 0.00 82 1008.7
20260506191529 7 74 14.5 25.7 0.00 0.00 0.00 83 1008.8
20260506190028 7 80 8.0 20.9 0.00 0.00 0.00 82 1008.7
20260506184540 7 65 14.5 27.4 0.00 0.00 0.00 82 1008.5
20260506183036 7 71 14.5 22.5 0.00 0.00 0.00 82 1008.3
20260506181526 7 91 11.3 25.7 0.00 0.00 0.00 81 1008.2
20260506180020 8 69 14.5 25.7 0.00 0.00 0.00 80 1008.1
20260506174521 8 88 8.0 27.4 0.00 0.00 0.00 80 1008.0
20260506173016 8 90 12.9 33.8 0.00 0.00 0.00 78 1007.9